Jaffrey, NH

2:30 AM EST on November 21, 2017 (GMT -0500)
Jaffrey Airport-Silver Ranch

Weather History for KAFN - November, 2011

Change the Weather History Date:

Wednesday, November 2, 2011

  Actual Average Record
Temperature  
Mean Temperature 34 °F -  
Max Temperature 51 °F 48 °F 66 °F (2001)
Min Temperature 18 °F 31 °F 18 °F (2011)
Degree Days  
Heating Degree Days 31    
Moisture  
Dew Point 23 °F    
Average Humidity 90    
Maximum Humidity 100    
Minimum Humidity 50    
Precipitation  
Precipitation 0.00 in - - ()
Sea Level Pressure  
Sea Level Pressure 30.35 in    
Wind  
Wind Speed 0 mph (South)    
Max Wind Speed 7 mph    
Max Gust Speed -    
Visibility 5 miles    
Events Fog    
Averages and records for this station are not official NWS values.
T = Trace of Precipitation, MM = Missing Value Source: NWS Daily Summary

Daily Weather History Graph

Daily Weather History Graph

Search for Another Location

Airport or City:

Trip Planner

Search our weather history database for the weather conditions in past years. The results will help you decide how hot, cold, wet, or windy it might be!

Date:

Astronomy

Nov. 02, 2011 Rise Set
Actual Time 7:23 AM EDT 5:39 PM EDT
Civil Twilight 6:53 AM EDT 6:08 PM EDT
Nautical Twilight 6:20 AM EDT 6:42 PM EDT
Astronomical Twilight 5:47 AM EDT 7:15 PM EDT
Moon 1:41 PM EDT (11/2) No Moon Set
Length of Visible Light 11h 15m
Length of Day
10h 16m
Waxing Crescent, 50% of the Moon is Illuminated
Nov 2
Waxing Crescent
Nov 2
First Quarter
Nov 10
Full
Nov 18
Last Quarter
Nov 25
New

Hourly Weather History & Observations

Time (EDT) Temp. Windchill Dew Point Humidity Pressure Visibility Wind Dir Wind Speed Gust Speed Precip Events Conditions
12:03 AM 21.2 °F - 21.2 °F 100% 30.34 in 0.2 mi Calm Calm - N/A Fog Light Freezing Fog
12:11 AM 21.2 °F - 19.4 °F 93% 30.34 in 1.0 mi Calm Calm - N/A   Clear
12:13 AM 21.2 °F - 19.4 °F 93% 30.34 in 1.5 mi Calm Calm - N/A   Clear
12:24 AM 21.2 °F - 19.4 °F 93% 30.33 in 3.0 mi Calm Calm - N/A   Clear
12:35 AM 21.2 °F - 19.4 °F 93% 30.34 in 1.8 mi Calm Calm - N/A   Clear
12:38 AM 21.2 °F - 21.2 °F 100% 30.34 in 1.0 mi Calm Calm - N/A   Clear
12:52 AM 21.9 °F - 19.9 °F 92% 30.39 in 0.5 mi Calm Calm - N/A Fog Light Freezing Fog
1:01 AM 21.2 °F - 19.4 °F 93% 30.34 in 1.2 mi Calm Calm - N/A   Clear
1:30 AM 21.2 °F - 19.4 °F 93% 30.34 in 1.8 mi Calm Calm - N/A   Clear
1:34 AM 21.2 °F - 19.4 °F 93% 30.33 in 3.0 mi Calm Calm - N/A   Clear
1:40 AM 21.2 °F - 19.4 °F 93% 30.33 in 1.8 mi Calm Calm - N/A   Clear
1:50 AM 21.2 °F - 19.4 °F 93% 30.33 in 1.2 mi Calm Calm - N/A   Clear
1:52 AM 21.0 °F - 19.0 °F 92% 30.38 in 1.5 mi Calm Calm - N/A   Clear
2:08 AM 21.2 °F - 19.4 °F 93% 30.33 in 1.8 mi Calm Calm - N/A   Clear
2:10 AM 21.2 °F - 19.4 °F 93% 30.33 in 1.0 mi Calm Calm - N/A   Mist
2:19 AM 21.2 °F - 19.4 °F 93% 30.33 in 1.8 mi Calm Calm - N/A   Clear
2:21 AM 21.2 °F - 19.4 °F 93% 30.33 in 3.0 mi Calm Calm - N/A   Clear
2:28 AM 21.2 °F - 19.4 °F 93% 30.33 in 1.8 mi Calm Calm - N/A   Clear
2:30 AM 21.2 °F - 19.4 °F 93% 30.33 in 1.0 mi Calm Calm - N/A   Clear
2:39 AM 19.4 °F - 17.6 °F 93% 30.33 in 1.5 mi Calm Calm - N/A   Clear
2:41 AM 19.4 °F - 17.6 °F 93% 30.33 in 3.0 mi Calm Calm - N/A   Clear
2:52 AM 21.0 °F - 19.0 °F 92% 30.38 in 4.0 mi Calm Calm - N/A   Clear
3:03 AM 21.2 °F - 19.4 °F 93% 30.33 in 1.0 mi Calm Calm - N/A   Clear
3:13 AM 21.2 °F - 19.4 °F 93% 30.33 in 1.8 mi Calm Calm - N/A   Clear
3:15 AM 21.2 °F - 19.4 °F 93% 30.33 in 4.0 mi Calm Calm - N/A   Clear
3:41 AM 19.4 °F - 19.4 °F 100% 30.33 in 1.8 mi Calm Calm - N/A   Clear
3:52 AM 19.9 °F - 18.0 °F 92% 30.39 in 3.0 mi Calm Calm - N/A   Clear
4:05 AM 19.4 °F - 17.6 °F 93% 30.34 in 2.5 mi Calm Calm - N/A   Clear
4:12 AM 19.4 °F - 17.6 °F 93% 30.35 in 8.0 mi Calm Calm - N/A   Clear
4:52 AM 18.0 °F - 17.1 °F 96% 30.41 in 10.0 mi Calm Calm - N/A   Clear
5:52 AM 19.9 °F - 18.0 °F 92% 30.43 in 10.0 mi Calm Calm - N/A   Clear
6:52 AM 19.0 °F 12.3 °F 17.1 °F 92% 30.44 in 10.0 mi South 4.6 mph - N/A   Clear
7:52 AM 19.0 °F - 18.0 °F 96% 30.45 in 10.0 mi Calm Calm - N/A   Clear
8:52 AM 25.0 °F 20.7 °F 25.0 °F 100% 30.46 in 7.0 mi SSE 3.5 mph - N/A   Clear
9:52 AM 30.0 °F - 30.0 °F 100% 30.44 in 5.0 mi Calm Calm - N/A   Clear
10:52 AM 39.9 °F - 35.1 °F 83% 30.43 in 10.0 mi Calm Calm - N/A   Clear
11:52 AM 43.0 °F 39.5 °F 30.9 °F 62% 30.42 in 10.0 mi South 5.8 mph - N/A   Clear
1:52 PM 48.9 °F - 30.9 °F 50% 30.35 in 10.0 mi SSW 5.8 mph - N/A   Clear
2:52 PM 50.0 °F - 32.0 °F 50% 30.33 in 10.0 mi Variable 3.5 mph - N/A   Clear
3:52 PM 48.9 °F - 33.1 °F 54% 30.32 in 10.0 mi SSW 4.6 mph - N/A   Clear
4:52 PM 42.1 °F 40.2 °F 34.0 °F 73% 30.33 in 10.0 mi South 3.5 mph - N/A   Clear
5:52 PM 36.0 °F - 33.1 °F 89% 30.33 in 10.0 mi Calm Calm - N/A   Clear
6:52 PM 34.0 °F - 32.0 °F 92% 30.34 in 10.0 mi Calm Calm - N/A   Clear
7:52 PM 30.9 °F - 30.9 °F 100% 30.34 in 9.0 mi Calm Calm - N/A   Clear
8:52 PM 28.9 °F - 28.9 °F 100% 30.32 in 5.0 mi Calm Calm - N/A   Clear
9:52 PM 28.9 °F 25.2 °F 28.0 °F 96% 30.30 in 5.0 mi South 3.5 mph - N/A   Clear
10:52 PM 27.0 °F - 26.1 °F 96% 30.27 in 5.0 mi Calm Calm - N/A   Clear
11:52 PM 28.0 °F 20.8 °F 28.0 °F 100% 30.27 in 4.0 mi South 6.9 mph - N/A   Clear